User: anonymous   Login
Location: Caltech
(34.1382°N, 118.1253°W)
Time: 21:44:43
(UTC-08:00)
Language:

RS-15 - Orbit

View from above orbital plane
View from above orbital plane
View from above satellite
View from above satellite

Ground track
Ground track

The orbit data is extracted from the following two-line orbital elements,

1 23439U 94085A   16339.97001332 -.00000049 +00000-0 -18156-3 0  9993
2 23439 064.8127 173.3021 0167403 278.8357 196.3592 11.27565243903518
Epoch (UTC): 04 December 2016 23:16:49
Eccentricity: 0.0167403
inclination: 64.8127°
perigee height: 1882 km
apogee height: 2163 km
right ascension of ascending node: 173.3021°
argument of perigee: 278.8357°
revolutions per day: 11.27565243
mean anomaly at epoch: 196.3592°
orbit number at epoch: 90351

The dashed part of the orbit path shows where the satellite is in the earth's shadow,  

DLR